EW9965 Weather Reports


time (UTC)temp
F
wind
direction
speed
knots
gust
knots
rain 1hr
in
rain 24hr
in
rain mn
in
humidity
%
barometer
mb
20260508173023 69 122 3.5 6.1 0.00 0.00 0.00 71 1015.7
20260508171521 68 218 0.9 5.2 0.00 0.00 0.00 75 1015.6
20260508170020 67 248 2.6 6.1 0.00 0.00 0.00 75 1015.7
20260508164523 65 207 0.9 4.3 0.00 0.00 0.00 81 1015.9
20260508163011 63 28 0.0 3.5 0.00 0.00 0.00 84 1016.0
20260508161507 62 37 1.7 4.3 0.00 0.00 0.00 87 1016.1
20260508160004 61 61 1.7 4.3 0.00 0.00 0.00 87 1016.2
20260508154604 61 358 1.7 5.2 0.00 0.00 0.00 88 1016.3
20260508153059 61 359 0.0 1.7 0.00 0.00 0.00 88 1016.3
20260508151557 61 232 0.0 1.7 0.00 0.00 0.00 88 1016.3
20260508150052 60 231 0.0 4.3 0.00 0.00 0.00 88 1016.3
20260508144549 60 258 0.0 1.7 0.00 0.00 0.00 88 1016.3
20260508143045 60 251 0.0 3.5 0.00 0.00 0.00 88 1016.1
20260508141544 60 218 0.0 1.7 0.00 0.00 0.00 89 1015.9
20260508140044 60 290 0.0 0.0 0.00 0.00 0.00 89 1015.9
20260508134541 60 61 0.0 3.5 0.00 0.00 0.00 89 1015.7
20260508133059 60 109 0.0 1.7 0.00 0.00 0.00 89 1015.6
20260508131538 60 203 0.0 0.0 0.00 0.00 0.00 88 1015.6
20260508130037 60 95 0.0 3.5 0.00 0.00 0.00 88 1015.6
20260508124537 60 134 0.0 1.7 0.00 0.00 0.00 88 1015.4
20260508123039 60 134 0.0 0.0 0.00 0.00 0.00 88 1015.4
20260508121536 60 134 0.0 0.0 0.00 0.00 0.00 88 1015.4
20260508120034 60 111 0.0 1.7 0.00 0.00 0.00 88 1015.4
20260508114533 60 91 0.0 2.6 0.00 0.00 0.00 88 1015.4
20260508113036 60 157 1.7 4.3 0.00 0.00 0.00 88 1015.4
20260508111531 60 117 0.9 5.2 0.00 0.00 0.00 87 1015.4
20260508110032 60 95 0.9 4.3 0.00 0.00 0.00 87 1015.4
20260508104528 60 111 0.9 4.3 0.00 0.00 0.00 87 1015.5
20260508103028 60 119 0.9 3.5 0.00 0.00 0.00 87 1015.7
20260508101527 60 139 0.9 4.3 0.00 0.00 0.00 87 1015.7
20260508100028 60 163 1.7 4.3 0.00 0.00 0.00 87 1015.6
20260508094526 60 111 0.9 5.2 0.00 0.00 0.00 87 1015.6
20260508093026 60 132 0.9 3.5 0.00 0.00 0.00 87 1015.5
20260508091535 60 122 0.9 4.3 0.00 0.00 0.00 86 1015.5
20260508090022 60 139 0.0 2.6 0.00 0.00 0.00 86 1015.6
20260508084521 60 109 0.0 3.5 0.00 0.00 0.00 86 1015.7
20260508083029 61 101 0.9 3.5 0.00 0.00 0.00 86 1015.8
20260508081518 61 115 2.6 4.3 0.00 0.00 0.00 86 1016.1
20260508080016 61 105 2.6 4.3 0.00 0.00 0.00 86 1016.3
20260508074515 61 91 1.7 4.3 0.00 0.00 0.00 86 1016.3
20260508073016 61 45 0.0 3.5 0.00 0.00 0.00 86 1016.3
20260508071515 61 51 0.0 3.5 0.00 0.00 0.00 85 1016.4
20260508070014 61 95 0.0 0.0 0.00 0.00 0.00 85 1016.6
20260508064516 61 258 0.0 3.5 0.00 0.00 0.00 85 1016.6
20260508063009 61 126 1.7 4.3 0.00 0.00 0.00 85 1016.7
20260508061509 61 139 2.6 5.2 0.00 0.00 0.00 85 1016.7
20260508060110 61 97 1.7 4.3 0.00 0.00 0.00 85 1016.6
20260508054508 61 159 1.7 6.1 0.00 0.00 0.00 84 1016.6
20260508053007 61 166 1.7 5.2 0.00 0.00 0.00 84 1016.7
20260508051506 61 157 0.9 5.2 0.00 0.00 0.00 83 1016.7
20260508050007 61 188 1.7 5.2 0.00 0.00 0.00 82 1016.6
20260508044505 62 195 0.9 4.3 0.00 0.00 0.00 81 1016.4
20260508043005 63 238 0.0 5.2 0.00 0.00 0.00 80 1016.2
20260508041508 63 197 0.0 4.3 0.00 0.00 0.00 78 1015.9
20260508040005 64 180 0.9 4.3 0.00 0.00 0.00 77 1015.7
20260508034502 65 166 3.5 7.0 0.00 0.00 0.00 75 1015.7
20260508033004 66 205 0.0 3.5 0.00 0.00 0.00 74 1015.4
20260508031503 67 197 0.9 6.1 0.00 0.00 0.00 72 1015.2
20260508030119 67 196 0.9 7.8 0.00 0.00 0.00 70 1015.0
20260508024603 68 190 1.7 7.0 0.00 0.00 0.00 69 1014.7
20260508023100 69 165 3.5 7.0 0.00 0.00 0.00 68 1014.4
20260508021559 70 176 2.6 7.8 0.00 0.00 0.00 67 1014.2
20260508020107 71 171 0.9 7.8 0.00 0.00 0.00 65 1014.1
20260508014558 72 159 3.5 7.8 0.00 0.00 0.00 64 1014.1
20260508013057 72 149 5.2 8.7 0.00 0.00 0.00 63 1014.0
20260508011556 74 209 5.2 8.7 0.00 0.00 0.00 60 1014.1
20260508004554 77 197 3.5 8.7 0.00 0.00 0.00 57 1014.0
20260508003102 77 243 3.5 7.8 0.00 0.00 0.00 55 1014.0
20260508001556 78 207 2.6 7.0 0.00 0.00 0.00 55 1013.9
20260508000051 78 190 1.7 8.7 0.00 0.00 0.00 55 1013.7
20260507234549 79 260 3.5 9.6 0.00 0.00 0.00 54 1013.9
20260507233048 79 179 4.3 8.7 0.00 0.00 0.00 54 1013.9
20260507231548 79 144 3.5 7.8 0.00 0.00 0.00 53 1013.9
20260507230104 79 253 2.6 8.7 0.00 0.00 0.00 54 1013.8
20260507224546 79 177 5.2 9.6 0.00 0.00 0.00 53 1013.9
20260507223132 79 216 2.6 7.8 0.00 0.00 0.00 53 1013.9
20260507221544 79 193 4.3 8.7 0.00 0.00 0.00 52 1013.9
20260507220043 79 194 5.2 9.6 0.00 0.00 0.00 53 1014.0
20260507214551 79 149 6.1 9.6 0.00 0.00 0.00 53 1014.2
20260507213041 80 144 3.5 9.6 0.00 0.00 0.00 52 1014.3
20260507211539 81 234 3.5 10.4 0.00 0.00 0.00 51 1014.4
20260507210043 80 238 3.5 9.6 0.00 0.00 0.00 53 1014.4
20260507204541 79 157 8.7 13.0 0.00 0.00 0.00 53 1014.6
20260507203040 81 229 3.5 8.7 0.00 0.00 0.00 51 1014.6
20260507201539 81 186 2.6 9.6 0.00 0.00 0.00 51 1014.6
20260507200049 79 149 5.2 10.4 0.00 0.00 0.00 52 1014.7
20260507194531 80 224 2.6 7.8 0.00 0.00 0.00 50 1014.7
20260507193041 79 272 3.5 6.1 0.00 0.00 0.00 50 1014.8
20260507191527 79 223 0.0 7.0 0.00 0.00 0.00 52 1014.9
20260507190032 76 355 1.7 6.1 0.00 0.00 0.00 52 1015.2
20260507184520 76 249 2.6 7.0 0.00 0.00 0.00 52 1015.4
20260507183031 75 208 2.6 6.1 0.00 0.00 0.00 53 1015.5
20260507181513 74 286 1.7 7.0 0.00 0.00 0.00 56 1015.6
20260507180009 73 216 1.7 6.1 0.00 0.00 0.00 59 1015.7
20260507174506 73 245 2.6 7.0 0.00 0.00 0.00 60 1016.0